Location: ????????
(55.3579°N, 39.3930°E)
Time: 10:34:05
(UTC+00:00)

Daily predictions for brighter satellites

Satellite Brightness Start Highest point End
(mag) Time Altitude Azimuth Time Altitude Azimuth Time Altitude Azimuth
ATLAS 2AS CENTAUR R/B 3.6 17:59:32 10° WSW 18:06:18 56° NNW 18:12:59 10° NE
Cosmos 2233 Rocket 4.0 18:02:13 10° S 18:08:24 77° E 18:14:33 10° NNE
Cosmos 1805 3.9 18:10:16 10° N 18:13:14 31° ENE 18:16:11 10° SE
USA 186 1.6 18:11:52 10° S 18:14:35 67° WSW 18:17:21 10° NNW
Cosmos 1544 Rocket 3.9 18:10:28 10° SSE 18:14:36 46° E 18:18:45 10° NNE
USA 306 1.8 18:11:48 10° WSW 18:14:47 44° S 18:16:46 10° E
Cosmos 1980 Rocket 4.1 18:11:12 10° NW 18:15:47 25° WSW 18:20:19 10° SSW
NOSS 3 (A) 3.8 18:15:23 10° NW 18:17:27 80° SW 18:20:05 10° SE
COSMOS 2406 3.5 18:12:47 10° S 18:18:14 46° ESE 18:23:42 10° NE
BREEZE-M DEB (TANK) 2.9 18:16:24 10° SW 18:18:53 20° S 18:20:34 10° ESE
Cosmos 724 4.4 18:14:31 10° SW 18:20:33 86° NW 18:26:29 10° NE
Nadezhda 4 Rocket 4.5 18:15:01 10° N 18:20:55 47° ENE 18:26:49 10° SE
Meteor 1-20 Rocket 4.3 18:15:36 10° NNW 18:21:13 85° ENE 18:26:53 10° SSE
BREEZE-M DEB (TANK) 4.2 18:22:20 10° S 18:23:01 10° SSE 18:23:37 10° SSE
Ariane Rocket 3.2 18:18:31 10° SSE 18:23:32 65° ENE 18:28:33 10° NNW
Okean-O 3.1 18:19:25 10° S 18:23:43 59° WSW 18:28:05 10° NNW
EP 1 4.5 18:21:29 10° WNW 18:24:04 59° SW 18:26:38 11° SE
DNEPR-1 R/B 4.3 18:19:36 10° NW 18:24:51 78° SW 18:31:17 10° SE
SPOT 3 Rocket 3.6 18:21:22 10° SSE 18:26:31 83° ENE 18:31:41 10° NNW
CZ-2C R/B 2.7 18:24:02 10° SE 18:26:38 37° ENE 18:29:15 10° N
CZ-4 R/B 3.9 18:24:43 10° SW 18:26:52 15° W 18:29:03 10° NW
Cosmos 1782 3.6 18:24:19 10° SSW 18:27:44 47° WNW 18:31:11 10° N
Cosmos 1758 Rocket 3.7 18:23:49 10° NNW 18:28:13 77° W 18:32:38 10° S
Cosmos 2333 Rocket 2.4 18:22:36 10° NW 18:28:19 75° WSW 18:34:01 10° SSE
Spot 2 Rocket 4.2 18:24:09 10° S 18:29:04 54° W 18:34:01 10° NNW
Cosmos 1933 3.5 18:28:14 10° S 18:31:54 49° E 18:35:36 10° NNE
Cosmos 1825 Rocket 3.9 18:37:11 10° N 18:41:26 50° ENE 18:45:21 12° SSE
Cosmos 990 Rocket 4.4 18:37:06 10° NNW 18:42:11 55° NE 18:47:01 11° SE
Cosmos 2360 Rocket 2.3 18:36:49 10° NW 18:42:33 89° NE 18:47:55 12° SSE
Cosmos 44 3.9 18:39:28 10° NW 18:44:52 62° NE 18:50:09 10° ESE
CZ-4C R/B 2.8 18:42:12 10° WSW 18:46:51 57° NNW 18:52:58 10° NE
Cosmos 1536 4.4 18:44:31 10° NNE 18:47:19 20° ENE 18:50:07 10° ESE
Cosmos 1953 Rocket 4.4 18:43:16 10° N 18:47:20 37° ENE 18:50:54 12° SE
Cosmos 2333 4.3 18:44:10 10° NW 18:49:56 86° NE 18:55:12 13° SE
Helios 1B rocket 3.9 18:47:35 10° ESE 18:50:10 20° ENE 18:52:46 10° NNE
CZ-4B R/B 3.5 18:45:55 10° SSE 18:50:41 77° WSW 18:55:36 10° NNW
Okean 1 4.1 18:48:21 13° SE 18:50:54 28° E 18:54:00 10° NNE
Cosmos 1602 Rocket 3.7 18:48:08 10° NNW 18:52:28 75° W 18:56:47 10° S
Cosmos 1992 Rocket 4.1 18:47:36 10° SSW 18:52:49 81° WNW 18:58:04 10° NNE
Cosmos 1461 2.7 18:51:00 10° SSW 18:54:35 49° SE 18:58:09 10° NE
Meteor 1-25 Rocket 4.4 18:50:03 10° NNW 18:55:44 73° W 19:01:18 10° S
Cosmos 2219 Rocket 2.3 18:50:21 10° NNW 18:56:02 77° NE 19:01:07 13° SE
Cosmos 1777 Rocket 4.1 18:51:04 10° NNW 18:56:19 78° WSW 19:01:01 13° SSE
Cosmos 1707 4.2 18:56:53 11° ESE 18:57:51 13° E 18:59:11 10° ENE
NOSS 3-3 (A) 3.9 18:58:22 10° SW 19:03:48 90° NNW 19:10:29 10° NE
Cosmos 909 Rocket 4.1 18:58:10 10° SW 19:04:26 89° NW 19:11:13 10° NE
Cosmos 1503 Rocket 4.0 18:59:31 10° NNW 19:04:45 84° WSW 19:09:08 14° SSE
Cosmos 220 Rocket 3.8 19:01:33 10° SSW 19:05:33 63° ESE 19:09:38 10° NNE
ISS -3.4 19:02:21 10° WSW 19:05:33 44° S 19:08:28 12° ESE
Cosmos 1437 Rocket 2.8 19:04:08 10° SSW 19:07:40 68° WNW 19:11:18 10° N
Helios 1A 4.2 19:05:48 10° NE 19:09:00 24° E 19:11:05 16° SE
USA 290 3.0 19:07:21 17° SSE 19:09:12 31° ESE 19:12:02 10° NE
Cosmos 1076 Rocket 3.5 19:07:18 10° N 19:11:35 71° ENE 19:14:52 16° SSE
Cosmos 2098 Rocket 3.0 19:08:01 10° S 19:12:44 78° E 19:16:46 10° NNE
Cosmos 2322 Rocket 2.6 19:08:39 10° NW 19:14:12 57° WSW 19:18:59 14° S
Terra 4.4 19:12:26 10° WSW 19:14:53 14° W 19:17:20 10° NW
Cosmos 1464 Rocket 4.0 19:09:30 10° S 19:15:37 74° E 19:21:50 10° NNE
Cosmos 2151 4.4 19:13:56 10° NNW 19:17:36 32° W 19:21:15 10° SSW
RESURS DK-1 3.3 19:14:55 10° NNW 19:18:41 38° NE 19:22:10 12° ESE
Cosmos 1354 Rocket 4.0 19:13:43 10° NNW 19:19:00 89° WSW 19:23:09 17° SSE
ARIANE 5 R/B 4.1 19:17:33 11° ESE 19:21:06 28° ENE 19:24:55 10° N
Cosmos 2082 Rocket 3.3 19:16:06 10° WSW 19:21:38 48° NW 19:27:10 10° NNE
ALOS 2 4.2 19:19:12 10° ESE 19:22:44 25° ENE 19:26:19 10° N
Meteor 2-10 4.5 19:17:28 10° NNW 19:23:10 68° W 19:28:15 13° S
Cosmos 372 Rocket 4.4 19:19:05 10° NNW 19:24:09 55° NE 19:28:14 15° SE
Cosmos 1606 Rocket 3.5 19:26:21 12° S 19:30:18 86° E 19:34:39 10° NNE
Cosmos 1092 Rocket 4.1 19:24:49 10° N 19:30:59 70° ENE 19:35:51 17° SSE
Cosmos 2237 Rocket 3.5 19:27:12 10° NNW 19:32:25 35° NE 19:37:36 10° ESE
NOSS 3-3 (C) 4.1 19:30:12 10° WSW 19:35:44 76° NW 19:42:34 10° NE
Aureole 1 Rocket 3.9 19:31:49 10° NNW 19:37:21 86° ENE 19:42:31 18° SSE
Cosmos 540 Rocket 3.7 19:33:38 15° S 19:37:46 51° ESE 19:42:46 10° NE
Cosmos 1766 2.7 19:35:21 10° N 19:38:35 72° ENE 19:40:18 25° SSE
Cosmos 1726 Rocket 3.3 19:35:41 16° S 19:38:48 78° E 19:42:53 10° NNE
Meteor 1-26 Rocket 4.4 19:35:05 17° S 19:39:17 55° E 19:44:53 10° NNE
Okean O Rocket 4.1 19:37:35 10° WSW 19:39:48 14° W 19:42:01 10° NW
Cosmos 1271 Rocket 4.2 19:39:32 16° ESE 19:40:38 19° E 19:43:05 10° NE
CZ-2C R/B 4.5 19:37:21 10° E 19:41:11 21° NE 19:45:00 10° N
USA 306 1.6 19:39:22 10° W 19:41:08 35° WSW 19:41:08 35° WSW
NOSS 0 Rocket 4.4 19:35:50 10° NNW 19:41:57 58° NE 19:47:32 12° SE
Cosmos 1842 4.3 19:42:25 19° ESE 19:43:24 22° E 19:45:56 10° NE
COSMOS 2428 3.0 19:37:55 10° NNW 19:43:37 65° NE 19:48:16 16° SE
SL-16 R/B 3.9 19:39:46 10° NW 19:44:10 23° WSW 19:48:31 10° SSW
Cosmos 1937 Rocket 4.1 19:40:13 10° NNW 19:45:15 48° NE 19:49:21 15° SE
Geosat 4.2 19:46:31 10° NE 19:51:23 49° ESE 19:55:05 17° S
Cosmos 2034 Rocket 4.1 19:48:12 13° S 19:54:01 90° WSW 20:00:24 10° NNE
IKONOS-2 4.4 19:50:35 10° NNE 19:54:42 67° ESE 19:57:23 21° S
USA 234 4.5 19:53:29 10° E 19:58:05 20° SE 19:59:51 18° SSE
ATLAS 2AS CENTAUR R/B 4.0 19:51:55 10° WNW 19:58:22 42° N 20:04:47 10° ENE
Cosmos-2242 2.8 19:57:49 22° S 20:00:26 75° E 20:04:34 10° NNE
COSMOS 2406 4.3 19:57:00 10° WSW 20:02:34 48° NW 20:08:08 10° NNE
TSX-5 3.4 20:07:07 10° NW 20:10:10 58° WSW 20:11:27 31° S
Cosmos 2333 Rocket 4.3 20:08:09 10° WNW 20:11:42 17° W 20:15:15 10° SW
BREEZE-M R/B 4.4 20:04:41 10° W 20:12:24 54° SSW 20:17:58 10° ESE
Cosmos 2279 Rocket 4.2 20:08:45 20° SSE 20:12:59 57° E 20:19:08 10° NNE
Meteor 1-14 Rocket 4.2 20:07:32 10° NNW 20:13:07 75° ENE 20:16:48 22° SSE
SL-08 ROCKET BODY 4.5 20:08:11 10° N 20:14:23 84° E 20:18:40 21° SSE
SeaSat 1 4.0 20:11:02 10° E 20:15:20 32° NE 20:19:39 10° NNW
Cosmos 1634 Rocket 4.0 20:13:07 19° S 20:17:43 81° E 20:23:58 10° NNE
Cosmos 1898 Rocket 3.5 20:13:23 10° NNW 20:18:36 83° WSW 20:21:54 23° SSE
Cosmos 1763 Rocket 3.6 20:13:25 10° SSW 20:18:43 79° WNW 20:24:01 10° NNE
Cosmos 1833 4.2 20:16:30 10° SSW 20:22:10 87° NW 20:27:51 10° NE
Cosmos 2297 Rocket 3.6 20:19:59 17° SE 20:22:19 22° ESE 20:26:30 10° NE
Cosmos 1536 3.2 20:19:14 10° NNW 20:22:48 48° W 20:24:41 24° SSW
Helios 1B rocket 2.5 20:21:14 26° SSW 20:22:52 50° WSW 20:26:19 10° NNW
Cosmos 1470 2.2 20:20:23 10° NNW 20:23:42 87° W 20:25:01 34° S
CZ-2C R/B 3.9 20:19:27 10° NNE 20:23:50 55° E 20:26:14 25° S
Cosmos 2221 3.0 20:22:50 26° SSE 20:24:47 44° E 20:28:47 10° NNE
Cosmos 2360 Rocket 3.9 20:21:38 10° NW 20:25:50 22° WSW 20:29:39 11° SSW
Cosmos 44 4.2 20:20:52 10° NW 20:25:54 40° WSW 20:28:40 23° S
Cosmos 2322 3.8 20:22:40 10° NW 20:28:20 66° WSW 20:31:53 23° SSE
Cosmos 1707 2.9 20:28:22 24° SW 20:29:43 42° WNW 20:32:27 10° N
Meteor 2-6 Rocket 4.4 20:26:06 21° S 20:30:13 76° E 20:36:11 10° NNE
Cosmos 1461 4.2 20:27:33 10° W 20:30:59 36° NNW 20:34:24 10° NE
CZ-4C R/B 3.8 20:31:04 10° WNW 20:36:06 39° N 20:42:36 10° ENE
Cosmos 2266 Rocket 4.0 20:32:11 10° N 20:38:15 71° ENE 20:42:17 22° SSE
GP-B 3.7 20:35:14 10° N 20:39:28 45° E 20:41:42 24° SE
Cosmos 2219 Rocket 3.6 20:34:53 10° NW 20:39:28 26° WSW 20:42:48 15° SSW
Cosmos 2058 Rocket 3.5 20:37:19 19° SSW 20:40:20 57° WNW 20:44:38 10° N
ISS -2.5 20:39:04 10° W 20:41:23 25° SW 20:41:23 25° SW
USA 290 4.3 20:40:38 10° WSW 20:43:20 26° NW 20:46:03 10° N
Helios 1A 3.7 20:40:07 10° N 20:43:53 46° WNW 20:46:48 16° SW
SAR-Lupe-2 3.3 20:46:49 36° SSE 20:48:03 86° WSW 20:51:23 10° NNW
Cosmos 1975 2.8 20:45:59 10° NNW 20:49:38 61° W 20:51:09 31° SSW
Cosmos 841 Rocket 3.6 20:48:19 25° S 20:51:16 60° ESE 20:56:27 10° NNE
Meteor 1-19 Rocket 4.4 20:49:52 24° S 20:53:31 72° E 20:59:28 10° NNE
KORONAS-FOTON 4.4 20:51:50 21° SW 20:53:41 42° WNW 20:56:57 10° N
RESURS DK-1 3.1 20:52:21 10° NW 20:56:02 36° WSW 20:57:22 27° SSW
Cosmos 2322 Rocket 4.4 20:54:56 10° WNW 20:57:03 12° W 20:59:10 10° WSW
ARIANE 5 R/B 3.1 20:54:55 26° SSW 20:57:11 51° W 21:01:34 10° NNW
ALOS 2 2.9 20:56:35 27° S 20:58:48 58° WSW 21:03:09 10° NNW
SL-16 R/B 3.3 20:59:20 10° NNW 21:04:48 44° NE 21:10:14 10° ESE
Cosmos 1655 Rocket 4.3 20:59:51 10° N 21:06:03 61° ENE 21:10:33 19° SSE
Cosmos 2084 4.2 21:06:43 10° NW 21:10:47 51° NNE 21:14:48 10° ESE
Cosmos 1271 Rocket 3.3 21:12:52 23° SW 21:14:35 41° WNW 21:17:50 10° N
Cosmos 1766 Rocket 3.6 21:11:46 10° N 21:16:05 74° ENE 21:18:20 27° SSE
PSLV R/B 3.5 21:11:57 10° NNE 21:16:14 87° WNW 21:18:34 27° SSW
Cosmos 1842 4.2 21:15:02 19° WSW 21:16:38 29° WNW 21:19:28 10° N
Cosmos 2237 Rocket 2.2 21:11:16 10° NW 21:16:57 71° WSW 21:20:30 23° SSE
Lacrosse 4 Rocket 2.7 21:16:34 22° SE 21:17:30 24° ESE 21:20:48 10° ENE
CZ-2C R/B 2.6 21:17:31 24° SSE 21:20:48 88° ENE 21:26:03 10° NNW
Cosmos 1980 3.8 21:15:28 10° NW 21:21:04 63° WSW 21:24:26 24° S
ARGOS Delta rocket 4.2 21:18:32 10° N 21:23:36 68° WNW 21:27:06 21° SSW
Cosmos 1937 Rocket 4.3 21:22:20 10° NW 21:26:59 36° WSW 21:29:23 23° SSW
COSMOS 2428 3.7 21:22:35 10° NW 21:27:32 31° WSW 21:30:13 21° SSW
Iridium 4 Rocket 4.3 21:25:13 20° SSE 21:29:00 50° E 21:34:37 10° NNE
Meteor 1-11 Rocket 4.2 21:24:35 10° NNW 21:30:05 51° W 21:33:18 23° SSW
Cosmos 2227 Rocket 3.3 21:29:18 20° SSE 21:32:11 30° ESE 21:37:04 10° NE
Meteor 2-4 Rocket 3.9 21:29:47 24° S 21:32:58 61° E 21:38:28 10° NNE
Meteor 1-10 Rocket 4.5 21:34:57 22° SSW 21:38:57 71° WNW 21:44:56 10° NNE
USA 234 3.4 21:35:48 10° ENE 21:42:12 53° SE 21:47:10 17° SW
Cosmos 2263 Rocket 3.6 21:39:15 16° SE 21:42:15 24° ESE 21:46:38 10° NE
MetOp-A 4.3 21:40:33 25° SSW 21:43:00 46° W 21:47:30 10° NNW
Cosmos 1943 4.5 21:44:04 10° NNW 21:49:23 40° NE 21:54:39 10° ESE
ACS3 Solar Sail 2.4 21:44:00 10° NNE 21:49:45 46° E 21:53:51 19° SSE
ATLAS 2AS CENTAUR R/B 3.2 21:43:36 10° NW 21:50:22 61° NNE 21:57:05 10° ESE
CZ-2C R/B 3.4 21:45:12 10° NNE 21:50:57 81° WNW 21:54:49 22° SSW
Cosmos 1812 Rocket 4.4 21:48:19 20° SW 21:51:02 42° WNW 21:55:16 10° N
SeaSat 1 2.4 21:49:02 20° SSE 21:52:24 74° WSW 21:57:21 10° NW
Cosmos 1238 Rocket 2.9 21:50:42 30° SSW 21:52:40 82° W 21:57:08 10° N
Meteor 1-27 Rocket 3.8 21:50:12 23° SSW 21:53:59 79° WNW 21:59:45 10° NNE
Cosmos 1500 Rocket 4.4 21:52:12 10° N 21:56:31 48° ENE 21:59:56 15° SE
Meteor 2-20 Rocket 4.3 21:53:25 23° SSW 21:57:05 83° WNW 22:02:50 10° N
Cosmos 1758 3.4 21:55:24 10° N 21:59:00 61° ENE 22:01:00 24° SSE
Alouette 2 Rocket 3.9 21:57:32 10° NNW 22:01:07 49° WSW 22:03:14 26° SSW
Cosmos 2221 4.1 21:59:07 13° WSW 22:01:59 26° WNW 22:05:34 10° N
Cosmos 2297 Rocket 2.2 22:01:44 21° SSW 22:05:40 88° NW 22:11:22 10° NE
Cosmos 1125 Rocket 3.6 22:00:28 10° NNW 22:05:48 78° ENE 22:10:39 12° SSE
BlueWalker 3 2.8 22:07:41 26° SSE 22:07:46 26° SSE 22:10:47 10° E
Okean 3 Rocket 3.6 22:04:49 10° NNW 22:09:22 86° WSW 22:12:07 24° S
Meteor 2-10 Rocket 3.8 22:07:01 10° NNW 22:12:26 62° W 22:16:03 22° S
Landsat 5 3.3 22:09:36 10° NNE 22:13:45 83° WNW 22:15:53 27° SSW
Cosmos 1340 Rocket 3.0 22:12:13 10° N 22:16:03 63° ENE 22:18:42 19° SSE
Cosmos 1842 Rocket 3.5 22:16:33 26° SSW 22:19:01 81° W 22:23:29 10° N
Sich 1 3.0 22:16:02 10° NNW 22:20:09 63° W 22:22:24 26° S
Cosmos 1553 Rocket 4.2 22:16:07 20° S 22:20:44 72° E 22:27:10 10° NNE
SL-14 R/B 3.2 22:21:32 27° S 22:23:31 74° E 22:27:19 10° NNE
Cosmos 1814 Rocket 4.0 22:20:30 23° SSW 22:23:48 80° ESE 22:29:05 10° NNE
Cosmos 1805 Rocket 3.5 22:20:56 10° NNW 22:25:18 87° E 22:28:12 20° SSE
CZ-4C R/B 3.5 22:19:33 10° NW 22:25:27 55° NNE 22:33:05 10° ESE
DELTA 2 DEB (DPAF) 3.5 22:24:58 10° NNE 22:28:33 87° ESE 22:30:21 28° SSW
BREEZE-M DEB (TANK) 3.9 22:17:31 10° SW 22:28:34 39° S 22:32:32 10° E
Cosmos 1743 Rocket 3.9 22:25:56 10° N 22:30:15 63° ENE 22:33:48 14° SSE
Cosmos 1066 Rocket 4.2 22:27:10 22° SSW 22:30:49 74° WNW 22:36:23 10° NNE
Cosmos 1953 3.4 22:32:41 10° N 22:36:07 37° ENE 22:39:31 10° SE
CENTAUR R/B 4.3 22:33:21 10° SE 22:36:39 16° ESE 22:40:19 10° ENE
IDEFIX/ARIANE 42P 3.6 22:33:09 10° NNE 22:38:00 37° E 22:42:24 12° SSE
CZ-4C R/B 3.3 22:36:51 10° N 22:40:11 56° WNW 22:41:59 24° SW
Cosmos 1745 Rocket 4.0 22:41:32 10° NNW 22:47:42 89° W 22:53:23 12° S
Meteor 1-18 Rocket 4.3 22:44:04 20° SSW 22:48:04 70° WNW 22:53:47 10° NNE
Cosmos 158 Rocket 4.3 22:44:55 18° SW 22:48:55 66° WNW 22:54:14 10° NNE
SL-16 R/B 2.4 22:43:33 10° NW 22:49:03 51° WSW 22:53:44 14° S
Cosmos 1408 Rocket 3.7 22:44:55 10° NNW 22:49:08 56° W 22:51:52 21° SSW
Cosmos 2084 3.7 22:45:26 10° WNW 22:49:21 43° SW 22:52:43 13° SSE
Lacrosse 4 Rocket 1.7 22:51:57 17° WSW 22:54:57 61° NW 22:59:03 10° NE
Cosmos 2219 3.9 22:51:04 16° S 22:55:17 44° ESE 23:00:36 10° NE
SL-19 R/B 3.8 22:53:52 24° S 22:55:31 57° WSW 22:58:44 10° NNW
Cosmos 2237 Rocket 3.9 22:56:44 10° WNW 23:00:01 16° W 23:02:17 13° SW
CZ-2C R/B 4.3 22:58:57 13° WSW 23:01:45 19° W 23:05:22 10° NW
BREEZE-M DEB (TANK) 2.7 23:00:15 10° W 23:06:11 57° S 23:08:37 10° ESE
In-Cosmos 22 4.4 23:05:14 17° SSW 23:09:29 62° WNW 23:15:09 10° N
PSLV R/B 3.9 23:07:03 10° N 23:10:54 64° WNW 23:13:37 19° SSW
Cosmos 1703 2.9 23:10:39 18° S 23:12:50 66° E 23:16:01 10° NNE
ADEOS Rocket 3.9 23:07:51 10° NNE 23:15:33 62° E 23:22:45 10° S
Cosmos 1417 Rocket 4.5 23:10:22 15° S 23:15:36 87° W 23:21:50 10° N
Cosmos 2227 Rocket 2.4 23:11:04 15° SW 23:15:51 67° NW 23:21:33 10° NNE
Meteor 1-22 Rocket 4.3 23:10:35 10° NNW 23:16:26 73° W 23:22:00 10° S
USA 281 3.5 23:10:57 10° SE 23:17:29 71° NE 23:24:02 10° NNW
Cosmos 1900 4.2 23:13:10 10° NW 23:18:05 82° SW 23:22:57 10° SE
H-2A R/B 4.3 23:15:52 10° ESE 23:18:54 26° ENE 23:22:00 10° N
Cosmos 1867 3.5 23:13:54 10° NW 23:19:24 80° SW 23:24:52 10° SE
BREEZE-M DEB (TANK) 4.1 23:23:10 17° SSW 23:24:12 20° S 23:28:25 10° SE
USA 234 3.3 23:19:00 10° ENE 23:25:35 88° NNW 23:32:09 10° WSW
Cosmos 2263 Rocket 2.2 23:20:54 15° SW 23:25:36 80° NW 23:31:13 10° NNE
USA 81 4.2 23:22:07 10° N 23:27:26 80° E 23:32:41 10° S
Cosmos 1151 Rocket 3.6 23:25:13 16° SW 23:28:25 44° WNW 23:32:35 10° N
SeaSat 1 4.1 23:28:37 13° SW 23:30:33 16° WSW 23:33:29 10° WNW
Cosmos 1633 Rocket 3.0 23:27:07 10° NNW 23:31:27 83° W 23:35:47 10° S
MOZ.5/SAFIR/RUBIN 5/SL-8 3.8 23:27:22 10° SSE 23:31:58 81° ENE 23:36:34 10° NNW
ACS3 Solar Sail 2.4 23:26:29 10° N 23:32:06 44° WNW 23:37:20 12° SW
Cosmos 1470 Rocket 3.8 23:28:41 10° N 23:33:03 73° ENE 23:37:25 10° SSE
ADEOS II 4.1 23:29:10 10° NE 23:33:19 23° E 23:37:27 10° SE
Cosmos 1943 3.3 23:28:09 10° NW 23:33:39 57° WSW 23:39:07 10° SSE
ATLAS 2AS CENTAUR R/B 2.8 23:34:43 10° NW 23:41:18 55° SW 23:47:53 10° SSE
Cosmos 2298 Rocket 4.1 23:39:30 10° NNW 23:44:46 59° WSW 23:49:57 10° S
BlueWalker 3 1.8 23:41:17 10° WSW 23:44:46 56° S 23:48:16 10° E
Cosmos 2285 Rocket 4.0 23:38:30 10° NNW 23:44:49 79° WSW 23:51:08 10° SSE
Meteor 1-15 Rocket 4.4 23:39:35 10° NNW 23:45:27 64° W 23:51:16 10° S
Resurs 1-4 Rocket 3.3 23:40:32 10° NNE 23:45:29 39° E 23:50:23 10° SSE
S3M 4.1 23:40:11 12° SSW 23:45:56 66° WNW 23:52:04 10° N
MSX 3.9 23:40:39 10° NNE 23:46:26 77° WNW 23:52:04 11° SSW
Cosmos 1570 Rocket 4.1 23:42:50 12° SSW 23:47:41 87° WNW 23:53:03 10° NNE
NOSS 2-2 (C) 3.4 23:47:29 13° SSW 23:50:00 40° SE 23:52:50 10° ENE
Cosmos 1833 Rocket 4.3 23:44:46 10° NNW 23:50:06 40° NE 23:55:24 10° ESE
Cosmos 2297 Rocket 3.8 23:45:34 10° W 23:50:27 29° NNW 23:55:21 10° NNE
Meteor 1-16 Rocket 4.1 23:46:27 10° NNW 23:51:47 79° WSW 23:57:05 10° S
EXPRESS MD2 3.4 23:51:48 16° SW 23:52:52 21° S 23:54:56 10° SE
